Location: Pallagorio
(39.3000°N, 16.9000°E)
Time: 18:06:41
(UTC+00:00)

CSL-04 Rocket - Pass Details

Date: 24 January 2021
Orbit: 806 x 860 km, 98.9° (Epoch: 02 March)

Event Time Altitude Azimuth Distance (km) Brightness Sun altitude
Rises 17:21:13 0° 143° (SE) 3,353 6.6 -15.0°
Reaches altitude 10° 17:23:40 10° 136° (SE) 2,432 5.8 -15.5°
Maximum altitude 17:28:39 39° 69° (ENE) 1,231 4.1 -16.4°
Drops below altitude 10° 17:33:43 10° 2° (N) 2,479 6.0 -17.4°
Sets 17:36:14 0° 355° (N) 3,425 6.8 -17.9°
